WB3EGK Weather Reports


time (UTC)temp
C
wind
direction
speed
KPH
gust
KPH
rain 1hr
cm
rain 24hr
cm
rain mn
cm
humidity
%
barometer
mb
20260504140945 14 216 11.3 12.9 0.00 0.00 0.00 1 1006.7
20260504140442 14 246 12.9 16.1 0.00 0.00 0.00 1 1006.8
20260504130406 12 204 6.4 9.7 0.00 0.00 0.00 1 1007.1
20260504110253 8 217 6.4 9.7 0.00 0.00 0.00 1 1006.9
20260504100211 8 180 11.3 12.9 0.00 0.00 0.00 1 1007.0
20260504090134 9 271 6.4 9.7 0.00 0.00 0.00 1 1007.3
20260504081604 9 204 3.2 4.8 0.00 0.00 0.00 1 1007.6
20260504081100 8 216 6.4 9.7 0.00 0.00 0.00 1 1007.8
20260504080557 8 222 8.0 8.0 0.00 0.00 0.00 1 1007.9
20260504050410 8 228 4.8 4.8 0.00 0.00 0.00 1 1009.6
20260504045907 8 239 4.8 4.8 0.00 0.00 0.00 1 1009.7
20260504045402 8 261 4.8 4.8 0.00 0.00 0.00 1 1009.5
20260504044859 8 220 6.4 8.0 0.00 0.00 0.00 1 1009.6
20260504044356 8 236 1.6 3.2 0.00 0.00 0.00 1 1009.6
20260504043854 8 242 4.8 8.0 0.00 0.00 0.00 1 1009.9
20260504043350 8 234 4.8 4.8 0.00 0.00 0.00 1 1009.8
20260504042848 8 206 4.8 8.0 0.00 0.00 0.00 1 1009.7
20260504042344 8 249 4.8 4.8 0.00 0.00 0.00 1 1009.7
20260504041840 8 227 4.8 4.8 0.00 0.00 0.00 1 1009.9
20260504041337 8 228 4.8 4.8 0.00 0.00 0.00 1 1009.7
20260504040833 8 225 3.2 3.2 0.00 0.00 0.00 1 1009.7
20260504040331 8 240 3.2 3.2 0.00 0.00 0.00 1 1009.8
20260504035826 8 236 6.4 8.0 0.00 0.00 0.00 1 1009.7
20260504035324 8 228 4.8 8.0 0.00 0.00 0.00 1 1009.9
20260504034821 8 243 4.8 4.8 0.00 0.00 0.00 1 1009.8
20260504034319 9 255 6.4 8.0 0.00 0.00 0.00 1 1009.7
20260504033816 9 215 6.4 8.0 0.00 0.00 0.00 1 1009.7
20260504033314 9 224 8.0 9.7 0.00 0.00 0.00 1 1009.8
20260504032810 9 230 6.4 8.0 0.00 0.00 0.00 1 1009.9
20260504032307 9 223 4.8 4.8 0.00 0.00 0.00 1 1010.0
20260504031804 9 227 8.0 11.3 0.00 0.00 0.00 1 1009.9
20260504031301 9 227 4.8 4.8 0.00 0.00 0.00 1 1010.1
20260504030757 9 217 6.4 8.0 0.00 0.00 0.00 1 1010.0
20260504030255 9 237 4.8 8.0 0.00 0.00 0.00 1 1009.9
20260504025751 10 226 4.8 4.8 0.00 0.00 0.00 1 1010.0
20260504025248 10 226 3.2 3.2 0.00 0.00 0.00 1 1010.0
20260504024744 10 235 4.8 4.8 0.00 0.00 0.00 1 1009.9
20260504024241 10 221 4.8 4.8 0.00 0.00 0.00 1 1010.2
20260504023738 10 209 6.4 8.0 0.00 0.00 0.00 1 1010.1
20260504023234 10 226 8.0 9.7 0.00 0.00 0.00 1 1010.0
20260504022730 10 239 4.8 4.8 0.00 0.00 0.00 1 1010.0
20260504022226 10 239 8.0 9.7 0.00 0.00 0.00 1 1010.1
20260504021724 10 214 4.8 4.8 0.00 0.00 0.00 1 1010.0
20260504021221 10 221 3.2 3.2 0.00 0.00 0.00 1 1010.1
20260504020718 10 237 4.8 4.8 0.00 0.00 0.00 1 1010.0
20260504020214 10 232 4.8 4.8 0.00 0.00 0.00 1 1010.1
20260504015711 10 229 8.0 9.7 0.00 0.00 0.00 1 1010.0
20260504015207 10 203 4.8 4.8 0.00 0.00 0.00 1 1010.0
20260504014703 10 213 4.8 4.8 0.00 0.00 0.00 1 1010.0
20260504014200 10 241 4.8 4.8 0.00 0.00 0.00 1 1009.9
20260504013658 10 204 3.2 4.8 0.00 0.00 0.00 1 1010.0
20260504013154 11 265 1.6 3.2 0.00 0.00 0.00 1 1009.8
20260504012651 11 192 6.4 8.0 0.00 0.00 0.00 1 1009.8
20260504012149 11 259 1.6 3.2 0.00 0.00 0.00 1 1009.6
20260504011646 11 230 4.8 8.0 0.00 0.00 0.00 1 1009.8
20260504011143 11 223 3.2 3.2 0.00 0.00 0.00 1 1009.6
20260504010638 11 242 4.8 4.8 0.00 0.00 0.00 1 1009.9
20260504010134 11 7 3.2 3.2 0.00 0.00 0.00 1 1009.9
20260504005632 11 215 3.2 3.2 0.00 0.00 0.00 1 1009.7
20260504005128 11 351 3.2 4.8 0.00 0.00 0.00 1 1009.6
20260504004627 11 226 3.2 3.2 0.00 0.00 0.00 1 1009.7
20260504004123 11 215 3.2 3.2 0.00 0.00 0.00 1 1009.7
20260504003619 11 259 4.8 4.8 0.00 0.00 0.00 1 1009.7
20260504003116 11 222 4.8 4.8 0.00 0.00 0.00 1 1009.7
20260504002613 11 219 4.8 4.8 0.00 0.00 0.00 1 1010.0
20260504002111 12 262 3.2 3.2 0.00 0.00 0.00 1 1009.7
20260504001608 12 264 4.8 4.8 0.00 0.00 0.00 1 1009.7
20260504001104 12 210 8.0 11.3 0.00 0.00 0.00 1 1009.7
20260504000601 12 276 8.0 9.7 0.00 0.00 0.00 1 1009.5
20260504000059 12 235 6.4 9.7 0.00 0.00 0.00 1 1009.4
20260503235557 12 0 6.4 9.7 0.00 0.00 0.00 1 1009.7
20260503235053 12 205 3.2 3.2 0.00 0.00 0.00 1 1009.7
20260503234551 12 256 3.2 4.8 0.00 0.00 0.00 1 1009.8
20260503234049 12 209 9.7 20.9 0.00 0.00 0.00 1 1009.5
20260503233545 12 246 6.4 8.0 0.00 0.00 0.00 1 1009.6
20260503233041 13 256 3.2 3.2 0.00 0.00 0.00 1 1009.7
20260503232539 13 278 4.8 4.8 0.00 0.00 0.00 1 1009.8
20260503232036 13 265 4.8 4.8 0.00 0.00 0.00 1 1009.8
20260503231534 13 135 6.4 14.5 0.00 0.00 0.00 1 1009.5
20260503231030 13 255 4.8 4.8 0.00 0.00 0.00 1 1009.8
20260503230527 13 292 8.0 12.9 0.00 0.00 0.00 1 1009.9
20260503230025 13 262 6.4 8.0 0.00 0.00 0.00 1 1009.9
20260503225521 13 216 3.2 4.8 0.00 0.00 0.00 1 1009.7
20260503225016 13 284 4.8 4.8 0.00 0.00 0.00 1 1009.8
20260503224514 13 288 6.4 9.7 0.00 0.00 0.00 1 1009.8
20260503224012 13 271 1.6 3.2 0.00 0.00 0.00 1 1009.8
20260503223509 13 253 8.0 9.7 0.00 0.00 0.00 1 1009.7
20260503223005 13 293 9.7 12.9 0.00 0.00 0.00 1 1009.9
20260503222503 13 273 6.4 8.0 0.00 0.00 0.00 1 1010.0
20260503222001 13 251 4.8 8.0 0.00 0.00 0.00 1 1010.1
20260503221459 13 299 6.4 8.0 0.00 0.00 0.00 1 1009.9
20260503220956 13 240 4.8 4.8 0.00 0.00 0.00 1 1009.8
20260503220452 13 305 6.4 8.0 0.00 0.00 0.00 1 1009.8
20260503215949 13 278 11.3 12.9 0.00 0.00 0.00 1 1009.6
20260503215446 13 290 9.7 12.9 0.00 0.00 0.00 1 1009.6
20260503214943 13 290 6.4 8.0 0.00 0.00 0.00 1 1009.7
20260503214441 13 289 6.4 8.0 0.00 0.00 0.00 1 1009.7
20260503213938 14 243 8.0 9.7 0.00 0.00 0.00 1 1009.9
20260503213437 15 204 9.7 11.3 0.00 0.00 0.00 1 1009.7
20260503212932 15 240 9.7 12.9 0.00 0.00 0.00 1 1009.5
20260503212430 13 289 8.0 11.3 0.00 0.00 0.00 1 1009.4
20260503211927 13 232 4.8 8.0 0.00 0.00 0.00 1 1009.4
20260503211424 15 219 6.4 9.7 0.00 0.00 0.00 1 1009.5
20260503210919 13 269 4.8 11.3 0.00 0.00 0.00 1 1009.5
20260503210416 14 284 11.3 12.9 0.00 0.00 0.00 1 1009.4
20260503205911 15 279 11.3 14.5 0.00 0.00 0.00 1 1009.5
20260503205409 15 224 6.4 9.7 0.00 0.00 0.00 1 1009.4
20260503204904 15 218 6.4 8.0 0.00 0.00 0.00 1 1009.5
20260503204402 13 264 8.0 9.7 0.00 0.00 0.00 1 1009.6
20260503203859 15 292 16.1 20.9 0.00 0.00 0.00 1 1009.9
20260503203356 14 205 6.4 8.0 0.00 0.00 0.00 1 1010.0
20260503202853 14 286 9.7 11.3 0.00 0.00 0.00 1 1009.9
20260503202351 14 267 3.2 4.8 0.00 0.00 0.00 1 1009.8
20260503201849 15 232 9.7 11.3 0.00 0.00 0.00 1 1009.7
20260503201346 14 220 6.4 9.7 0.00 0.00 0.00 1 1009.9
20260503200844 13 280 8.0 9.7 0.00 0.00 0.00 1 1010.2
20260503200339 13 294 8.0 9.7 0.00 0.00 0.00 1 1010.0
20260503195837 13 318 11.3 12.9 0.00 0.00 0.00 1 1010.3
20260503195333 13 284 8.0 9.7 0.00 0.00 0.00 1 1010.3
20260503194830 13 309 6.4 8.0 0.00 0.00 0.00 1 1010.5
20260503194326 13 282 16.1 22.5 0.00 0.00 0.00 1 1010.4
20260503193823 13 234 8.0 9.7 0.00 0.00 0.00 1 1010.4
20260503193319 13 249 6.4 8.0 0.00 0.00 0.00 1 1010.6
20260503192815 13 259 11.3 12.9 0.00 0.00 0.00 1 1010.3
20260503192310 13 252 9.7 11.3 0.00 0.00 0.00 1 1010.8
20260503191806 13 251 8.0 9.7 0.00 0.00 0.00 1 1010.6
20260503191304 14 263 6.4 8.0 0.00 0.00 0.00 1 1010.7
20260503190800 13 302 6.4 9.7 0.00 0.00 0.00 1 1011.0
20260503190257 13 257 14.5 17.7 0.00 0.00 0.00 1 1010.8
20260503185755 13 283 8.0 11.3 0.00 0.00 0.00 1 1011.0
20260503185250 13 220 9.7 11.3 0.00 0.00 0.00 1 1010.8
20260503184744 14 228 6.4 9.7 0.00 0.00 0.00 1 1011.0
20260503184241 13 287 6.4 11.3 0.00 0.00 0.00 1 1011.0
20260503183737 13 292 4.8 8.0 0.00 0.00 0.00 1 1011.4
20260503183235 13 308 11.3 12.9 0.00 0.00 0.00 1 1011.4
20260503182733 13 284 8.0 8.0 0.00 0.00 0.00 1 1011.5
20260503182232 13 292 6.4 8.0 0.00 0.00 0.00 1 1011.3
20260503181728 13 220 8.0 9.7 0.00 0.00 0.00 1 1011.4
20260503181225 13 274 14.5 17.7 0.00 0.00 0.00 1 1011.4
20260503180721 13 345 3.2 8.0 0.00 0.00 0.00 1 1011.7
20260503180220 12 273 6.4 11.3 0.00 0.00 0.00 1 1011.6
20260503175716 12 287 8.0 11.3 0.00 0.00 0.00 1 1011.7
20260503175214 13 289 4.8 4.8 0.00 0.00 0.00 1 1011.6
20260503174709 13 193 0.0 0.0 0.00 0.00 0.00 1 1012.0
20260503174207 12 255 12.9 24.1 0.00 0.00 0.00 1 1011.9
20260503173702 12 225 8.0 9.7 0.00 0.00 0.00 1 1011.6
20260503173159 12 255 8.0 11.3 0.00 0.00 0.00 1 1012.0
20260503172655 12 212 8.0 11.3 0.00 0.00 0.00 1 1012.2
20260503172153 12 266 8.0 11.3 0.00 0.00 0.00 1 1012.0
20260503171649 12 234 4.8 8.0 0.00 0.00 0.00 1 1012.1
20260503171146 12 337 3.2 3.2 0.00 0.00 0.00 1 1012.2
20260503170643 12 271 4.8 4.8 0.00 0.00 0.00 1 1012.3
20260503170140 12 213 11.3 12.9 0.00 0.00 0.00 1 1012.1
20260503150531 8 288 6.4 8.0 0.00 0.00 0.00 1 1013.2